Regional Weather Roundup
Issued by NWS

Home | Current Version | Previous Version | Graphics & Text | Print | Product List | Glossary Off
Versions: 1 2 3 4 5 6 7 8 9 10 11 12 13 14 15 16 17 18 19 20 21 22 23 24 25 26 27 28 29 30 31 32 33 34 35 36 37 38 39 40 41 42 43 44 45 46 47 48 49 50

000
ASUS43 KMPX 170401
RWRMN
WEATHER ROUNDUP FOR MINNESOTA
NATIONAL WEATHER SERVICE TWIN CITIES/CHANHASSEN MN
1100 PM CDT WED AUG 16 2017


NOTE: "FAIR" INDICATES FEW OR NO CLOUDS BELOW 12,000 FEET WITH NO
SIGNIFICANT WEATHER AND/OR OBSTRUCTIONS TO VISIBILITY. N/A MEANS
CURRENT SKY AND/OR WEATHER CONDITIONS ARE NOT AVAILABLE.

MNZ060>063-068>070-170500-
   Twin Cities Metro

CITY           SKY/WX    TMP DP  RH WIND       PRES   REMARKS
TWIN CITIES    CLOUDY    71  68  90 E9        29.60F
ST PAUL        CLOUDY    70  69  97 SE5       29.61F
CRYSTAL        CLOUDY    67  63  87 NE9       29.60F
BLAINE         CLOUDY    68  66  94 E8        29.62F
LAKEVILLE      CLOUDY    70 N/A N/A SE5       29.60F
EDEN PRAIRIE   LGT RAIN  72  70  93 E9        29.58F FOG
SOUTH ST PAUL  CLOUDY    71  71  99 E5        29.60F
LAKE ELMO      CLOUDY    70  68  94 E16       29.63F
$$
MNZ001>005-007-008-013>017-022>024-027-028-170500-
   Northwest Minnesota

CITY           SKY/WX    TMP DP  RH WIND       PRES   REMARKS
BEMIDJI        RAIN      64  63  97 E7        29.81S
HALLOCK        PTCLDY    61  59  94 NE5       29.83F
ROSEAU         CLOUDY    63  57  82 E8        29.83F HAZE
WARROAD        DRIZZLE   63  57  82 E12       29.84F
CROOKSTON      CLOUDY    64  63  94 N10       29.83R
FOSSTON        LGT RAIN  63  63 100 NE3       29.82S
DETROIT LAKES  LGT RAIN  64  64 100 CALM      29.80F
MOORHEAD       CLOUDY    64  63  94 N9        29.80S
PARK RAPIDS    LGT RAIN  65  63  93 E5        29.79F
MAHNOMEN       DRIZZLE   64  64  99 N5        29.80S
$$
MNZ006-009>011-018-025>026-170500-
   North Central Minnesota

CITY           SKY/WX    TMP DP  RH WIND       PRES   REMARKS
BAUDETTE       CLOUDY    61  61 100 E9        29.83F
FLAG ISLAND    CLOUDY    63  57  82 E3        29.86R
INTL FALLS     LGT RAIN  61  59  93 E5        29.85F
WASKISH        RAIN      63  63 100 E5        29.82S
BIG FORK       LGT RAIN  63  61  94 E3        29.83F
LONGVILLE      HVY RAIN  63  61  94 CALM      29.79F
GRAND RAPIDS   RAIN      60  59  96 VRB3      29.83F FOG
CRANE LAKE     RAIN      59  57  94 CALM      29.88S
ORR            DRIZZLE   59  55  88 CALM      29.83F
COOK           RAIN      57  57 100 E5        29.85F
WALKER         RAIN      63  62  97 E6        29.80S
$$
MNZ012-019>021-037-170500-
   Northeast Minnesota

CITY           SKY/WX    TMP DP  RH WIND       PRES   REMARKS
DULUTH         LGT RAIN  60  59  96 E16G24    29.80F
ELY            LGT RAIN  59  57  94 E3        29.88S
HIBBING        CLOUDY    58  57  97 NE7       29.83F
EVELETH        CLOUDY    58  55  90 NE5       29.84F
DULUTH HARBOR  CLOUDY    64  63  94 NE22      29.79F
TWO HARBORS    CLOUDY    64  59  82 E12       29.81F
GRAND MARAIS     N/A     63  58  83 NE10      29.88F
$$
MNZ029>031-032-039>041-046>048-054>057-064-170500-
   West Central Minnesota

CITY           SKY/WX    TMP DP  RH WIND       PRES   REMARKS
FERGUS FALLS   RAIN      66  66 100 N5        29.77S
WHEATON        LGT RAIN  64  63  94 NW12      29.77F
MORRIS         LGT RAIN  66  64  94 N9        29.72S
ALEXANDRIA     LGT RAIN  66  66 100 NE12      29.75F
ELBOW LAKE     RAIN      65  65 100 NE8       29.76S
WADENA         RAIN      64  64 100 NE5       29.77S
GLENWOOD       HVY RAIN  64  64 100 N16G22    29.71F
APPLETON       RAIN      68  64  88 N10       29.70S
BENSON         RAIN      66  64  94 NE12G20   29.70F
ORTONVILLE     RAIN      66  64  94 MISG      29.74S
MADISON        HVY RAIN  70  70 100 N16       29.70F
WILLMAR        HVY RAIN  66  66 100 NE30G38   29.61F
$$
MNZ033>034-036-042>043-049>051-058-059-170500-
   Central Minnesota

CITY           SKY/WX    TMP DP  RH WIND       PRES   REMARKS
ST CLOUD       LGT RAIN  68  68 100 NE13G22   29.64F FOG
SAUK CENTRE    RAIN      64  64  97 N13       29.70F
PAYNESVILLE    RAIN      67  67  98 NE14      29.63F
AITKIN         RAIN      61  59  94 NE8       29.76F
PINE RIVER     RAIN      61  61 100 E5        29.82S
BRAINERD       RAIN      63  62  97 NE13      29.75F FOG
STAPLES        HVY RAIN  63  63 100 NE6       29.76F
LONG PRAIRIE   LGT RAIN  63  63 100 N12G18    29.72F
LITTLE FALLS   RAIN      63  61  94 N7        29.71F
LITCHFIELD     DRIZZLE   70  68  94 NE8       29.58F
BUFFALO        CLOUDY    69  66  90 NE14G23   29.60F
MAPLE LAKE     RAIN      69  68  96 NE17G24   29.61F
HUTCHINSON     CLOUDY    70  69  97 E6        29.57F
$$
MNZ037-044-045-052-053-170500-
   East Central Minnesota

CITY           SKY/WX    TMP DP  RH WIND       PRES   REMARKS
PRINCETON      RAIN      70  66  88 NE9       29.67F
MORA           HVY RAIN  63  61  94 NE8       29.71F
RUSH CITY      HVY RAIN  67  66  94 E8        29.69F
MOOSE LAKE     RAIN      61  59  94 NE7       29.74F
HINCKLEY       LGT RAIN  64  64 100 NE10      29.73S
CLOQUET        RAIN      61  57  88 E9        29.79F
MCGREGOR       CLOUDY    61  59  94 NE3       29.78F
$$
MNZ071>073-080-081-089-090-097-098-170500-
   Southwest Minnesota

CITY           SKY/WX    TMP DP  RH WIND       PRES   REMARKS
MONTEVIDEO     HVY RAIN  64  64 100 N17G26    29.68F
GRANITE FALLS  HVY RAIN  67  66  99 NW20G31   29.64R
CANBY          HVY RAIN  67  65  94 CALM      29.72R
MARSHALL       LGT RAIN  66  64  93 NW16G24   29.66S
REDWOOD FALLS  LGT RAIN  66  64  93 NW23G31   29.53F
OLIVIA         RAIN      68  64  88 E7        29.52S
PIPESTONE      LGT RAIN  64  63  94 NW10      29.73S
WINDOM         CLOUDY    64  63  94 W15G23    29.63S
WORTHINGTON    LGT RAIN  65  64  97 W13       29.70S
JACKSON        CLOUDY    66  63  88 W15G22    29.66S
TRACY          LGT RAIN  65  65  99 NW14      29.66R
SLAYTON        CLOUDY    64  60  85 NW16      29.70R
$$
MNZ065>067-074>077-082>085-091>093-170500-
   South Central Minnesota

CITY           SKY/WX    TMP DP  RH WIND       PRES   REMARKS
MANKATO        CLOUDY    69  67  93 S13       29.58F
NEW ULM        CLOUDY    68  66  94 S10       29.54F
ST JAMES       CLOUDY    66  66 100 SW17      29.58S FOG
FAIRMONT       CLOUDY    67  65  93 W17G26    29.63S FOG
GLENCOE        CLOUDY    71  71 100 E9        29.56F
FARIBAULT      MOCLDY    72  70  94 S10       29.61F
OWATONNA       CLEAR     72  66  83 S15G21    29.62F
WASECA         CLOUDY    70  66  88 S13G18    29.63S
ALBERT LEA     CLOUDY    72  68  88 S8G16     29.65F
$$
MNZ078>079-086>088-094>096-170500-
   Southeast Minnesota

CITY           SKY/WX    TMP DP  RH WIND       PRES   REMARKS
ROCHESTER      PTCLDY    71  71 100 S9        29.66F
RED WING       CLOUDY    72  70  94 MISG      29.61F
STANTON        CLOUDY    73  69  88 SE10G16   29.60F
DODGE CENTER   CLEAR     72  70  94 S13       29.64F
WINONA         CLOUDY    73  72  94 SE8       29.66F
AUSTIN         MOCLDY    72  66  83 SW16G22   29.66S
PRESTON        CLOUDY    71  69  93 S7        29.68F
$$
ABBREVIATIONS USED IN REMARKS
   TC - TEMPERATURES IN CELSIUS
  WCI - WIND CHILL INDEX
   HX - HEAT INDEX
  VSB - VISIBILITY
$$




USA.gov is the U.S. government's official web portal to all federal, state and local government web resources and services.